Location: Unspecified
(0.0000°N, 0.0000°E)
Time: 00:47:37
(UTC+00:00)

ISS - Visible Passes

Search period start: 17 January 2017 00:00
Search period end: 27 January 2017 00:00
Orbit: 400 x 410 km, 51.6° (Epoch: 17 January)

Date Brightness Start Highest point End Pass type
(mag) Time Alt. Az. Time Alt. Az. Time Alt. Az.
19 Jan -2.5 19:37:50 10° SSW 19:40:18 41° S 19:40:18 41° S visible
20 Jan -1.6 18:46:28 10° S 18:48:53 19° SE 18:50:50 12° E visible
21 Jan -1.8 19:30:01 10° WSW 19:33:00 32° NW 19:34:07 25° NNW visible
22 Jan -3.4 18:37:33 10° SSW 18:40:49 81° SE 18:44:05 10° NE visible
24 Jan -0.6 05:20:19 10° NNE 05:22:28 16° NE 05:24:37 10° E visible
26 Jan -3.1 05:12:12 20° NNW 05:14:19 68° NE 05:17:32 10° SE visible
